North Bend, OR

9:30 AM PDT on April 27, 2017 (GMT -0700)
North Bend Municipal

Weather History for KOTH - April, 2013

Change the Weather History Date:

Tuesday, April 9, 2013

  Actual Average Record
Temperature  
Mean Temperature 51 °F 48 °F  
Max Temperature 59 °F 55 °F 87 °F (1989)
Min Temperature 43 °F 43 °F 31 °F (1927)
Degree Days  
Heating Degree Days 14 17  
Month to date heating degree days 121 153  
Since 1 July heating degree days 3671 3865  
Cooling Degree Days 0 0  
Month to date cooling degree days 0 0  
Year to date cooling degree days 0 0  
Moisture  
Dew Point 45 °F    
Average Humidity 84    
Maximum Humidity 100    
Minimum Humidity 53    
Precipitation  
Precipitation 0.00 in 0.19 in 2.65 in (1971)
Month to date precipitation 1.95 1.86  
Year to date precipitation 11.59 27.47  
Sea Level Pressure  
Sea Level Pressure 30.33 in    
Wind  
Wind Speed 4 mph (SSE)    
Max Wind Speed 10 mph    
Max Gust Speed -    
Visibility 10 miles    
Events      
T = Trace of Precipitation, MM = Missing Value Source: NWS Daily Summary

Daily Weather History Graph

Daily Weather History Graph

Search for Another Location

Airport or City:

Trip Planner

Search our weather history database for the weather conditions in past years. The results will help you decide how hot, cold, wet, or windy it might be!

Date:

Astronomy

Apr. 09, 2013 Rise Set
Actual Time 6:44 AM PDT 7:53 PM PDT
Civil Twilight 6:14 AM PDT 8:22 PM PDT
Nautical Twilight 5:39 AM PDT 8:58 PM PDT
Astronomical Twilight 5:02 AM PDT 9:35 PM PDT
Moon 6:10 AM PDT (4/9) 7:35 PM PDT (4/9)
Length of Visible Light 14h 08m
Length of Day
13h 09m
Waning Crescent, 0% of the Moon is Illuminated
Apr 9
Waning Crescent
Apr 10
New
Apr 18
First Quarter
Apr 25
Full
May 2
Last Quarter

Hourly Weather History & Observations

Time (PDT) Temp. Windchill Dew Point Humidity Pressure Visibility Wind Dir Wind Speed Gust Speed Precip Events Conditions
12:15 AM 42.8 °F - 41.0 °F 93% 30.34 in 10.0 mi Calm Calm - N/A   Clear
12:35 AM 42.8 °F 39.3 °F 42.8 °F 100% 30.33 in 10.0 mi SE 5.8 mph - N/A   Clear
12:55 AM 42.8 °F 40.1 °F 42.8 °F 100% 30.33 in 10.0 mi SSE 4.6 mph - N/A   Clear
1:15 AM 42.8 °F 40.1 °F 41.0 °F 93% 30.33 in 10.0 mi South 4.6 mph - N/A   Clear
1:35 AM 42.8 °F 41.1 °F 42.8 °F 100% 30.33 in 10.0 mi SSE 3.5 mph - N/A   Clear
1:55 AM 42.8 °F 41.1 °F 42.8 °F 100% 30.34 in 10.0 mi SSE 3.5 mph - N/A   Clear
2:15 AM 42.8 °F 41.1 °F 41.0 °F 93% 30.33 in 10.0 mi SE 3.5 mph - N/A   Clear
2:35 AM 42.8 °F 40.1 °F 41.0 °F 93% 30.33 in 10.0 mi SE 4.6 mph - N/A   Clear
2:55 AM 42.8 °F - 42.8 °F 100% 30.33 in 10.0 mi Calm Calm - N/A   Mostly Cloudy
3:15 AM 42.8 °F 41.1 °F 42.8 °F 100% 30.33 in 10.0 mi SE 3.5 mph - N/A   Mostly Cloudy
3:35 AM 42.8 °F 40.1 °F 42.8 °F 100% 30.32 in 10.0 mi SSE 4.6 mph - N/A   Scattered Clouds
3:55 AM 42.8 °F 41.1 °F 41.0 °F 93% 30.32 in 10.0 mi SE 3.5 mph - N/A   Overcast
4:15 AM 42.8 °F 39.3 °F 42.8 °F 100% 30.32 in 10.0 mi SE 5.8 mph - N/A   Overcast
4:35 AM 42.8 °F 41.1 °F 42.8 °F 100% 30.32 in 10.0 mi SE 3.5 mph - N/A   Overcast
4:55 AM 42.8 °F 40.1 °F 42.8 °F 100% 30.33 in 10.0 mi SE 4.6 mph - N/A   Overcast
5:15 AM 42.8 °F 41.1 °F 42.8 °F 100% 30.33 in 10.0 mi SSE 3.5 mph - N/A   Overcast
5:35 AM 44.6 °F 43.1 °F 42.8 °F 93% 30.33 in 10.0 mi SE 3.5 mph - N/A   Overcast
5:55 AM 44.6 °F - 42.8 °F 93% 30.33 in 10.0 mi Calm Calm - N/A   Overcast
6:15 AM 44.6 °F 43.1 °F 42.8 °F 93% 30.33 in 10.0 mi SSE 3.5 mph - N/A   Overcast
6:35 AM 42.8 °F 40.1 °F 41.0 °F 93% 30.32 in 10.0 mi SSE 4.6 mph - N/A   Overcast
6:55 AM 44.6 °F 43.1 °F 42.8 °F 93% 30.33 in 10.0 mi SE 3.5 mph - N/A   Overcast
7:15 AM 44.6 °F - 42.8 °F 93% 30.33 in 10.0 mi Calm Calm - N/A   Overcast
7:35 AM 44.6 °F - 42.8 °F 93% 30.33 in 10.0 mi Calm Calm - N/A   Overcast
7:55 AM 44.6 °F - 44.6 °F 100% 30.34 in 10.0 mi Calm Calm - N/A   Overcast
8:15 AM 44.6 °F - 44.6 °F 100% 30.34 in 10.0 mi Calm Calm - N/A   Overcast
8:35 AM 46.4 °F - 44.6 °F 93% 30.35 in 10.0 mi Calm Calm - N/A   Overcast
8:55 AM 46.4 °F - 44.6 °F 93% 30.35 in 10.0 mi Calm Calm - N/A   Overcast
9:15 AM 48.2 °F - 44.6 °F 87% 30.34 in 10.0 mi ESE 3.5 mph - N/A   Overcast
9:35 AM 48.2 °F - 44.6 °F 87% 30.34 in 10.0 mi SE 3.5 mph - N/A   Overcast
9:55 AM 50.0 °F - 44.6 °F 82% 30.34 in 10.0 mi SSE 3.5 mph - N/A   Overcast
10:15 AM 50.0 °F - 44.6 °F 82% 30.36 in 10.0 mi Calm Calm - N/A   Overcast
10:35 AM 50.0 °F - 44.6 °F 82% 30.36 in 10.0 mi Calm Calm - N/A   Overcast
10:55 AM 51.8 °F - 44.6 °F 76% 30.35 in 10.0 mi Calm Calm - N/A   Overcast
11:15 AM 51.8 °F - 46.4 °F 82% 30.36 in 10.0 mi West 3.5 mph - N/A   Overcast
11:35 AM 53.6 °F - 46.4 °F 77% 30.35 in 8.0 mi Calm Calm - N/A   Overcast
11:55 AM 53.6 °F - 48.2 °F 82% 30.35 in 9.0 mi West 4.6 mph - N/A   Overcast
12:15 PM 55.4 °F - 48.2 °F 77% 30.34 in 9.0 mi WNW 3.5 mph - N/A   Overcast
12:35 PM 55.4 °F - 48.2 °F 77% 30.34 in 10.0 mi NW 4.6 mph - N/A   Overcast
12:55 PM 55.4 °F - 48.2 °F 77% 30.33 in 10.0 mi NNW 4.6 mph - N/A   Overcast
1:15 PM 55.4 °F - 46.4 °F 72% 30.33 in 10.0 mi NW 5.8 mph - N/A   Scattered Clouds
1:35 PM 57.2 °F - 46.4 °F 67% 30.33 in 10.0 mi NW 8.1 mph - N/A   Mostly Cloudy
1:55 PM 57.2 °F - 46.4 °F 67% 30.33 in 10.0 mi NW 8.1 mph - N/A   Scattered Clouds
2:15 PM 57.2 °F - 44.6 °F 63% 30.33 in 10.0 mi NNW 6.9 mph - N/A   Mostly Cloudy
2:35 PM 59.0 °F - 46.4 °F 63% 30.33 in 10.0 mi NNW 4.6 mph - N/A   Overcast
2:55 PM 59.0 °F - 46.4 °F 63% 30.33 in 10.0 mi NW 10.4 mph - N/A   Overcast
3:15 PM 57.2 °F - 46.4 °F 67% 30.33 in 10.0 mi NNW 10.4 mph - N/A   Overcast
3:35 PM 57.2 °F - 44.6 °F 63% 30.33 in 10.0 mi NNW 9.2 mph - N/A   Overcast
3:55 PM 57.2 °F - 44.6 °F 63% 30.33 in 10.0 mi NNW 6.9 mph - N/A   Mostly Cloudy
4:15 PM 57.2 °F - 44.6 °F 63% 30.33 in 10.0 mi NNW 8.1 mph - N/A   Mostly Cloudy
4:35 PM 57.2 °F - 44.6 °F 63% 30.33 in 10.0 mi NNW 9.2 mph - N/A   Scattered Clouds
4:55 PM 59.0 °F - 42.8 °F 55% 30.33 in 10.0 mi NNW 9.2 mph - N/A   Clear
5:15 PM 57.2 °F - 44.6 °F 63% 30.33 in 10.0 mi NNW 9.2 mph - N/A   Clear
5:35 PM 55.4 °F - 44.6 °F 67% 30.32 in 10.0 mi NNW 5.8 mph - N/A   Clear
5:55 PM 57.2 °F - 44.6 °F 63% 30.31 in 10.0 mi NW 5.8 mph - N/A   Clear
6:15 PM 57.2 °F - 44.6 °F 63% 30.31 in 10.0 mi NW 5.8 mph - N/A   Clear
6:35 PM 55.4 °F - 42.8 °F 63% 30.32 in 10.0 mi NW 5.8 mph - N/A   Clear
6:55 PM 55.4 °F - 44.6 °F 67% 30.32 in 10.0 mi NW 6.9 mph - N/A   Partly Cloudy
7:15 PM 53.6 °F - 46.4 °F 77% 30.32 in 10.0 mi NW 5.8 mph - N/A   Partly Cloudy
7:55 PM 51.8 °F - 46.4 °F 82% 30.30 in 10.0 mi NNW 3.5 mph - N/A   Clear
8:15 PM 51.8 °F - 46.4 °F 82% 30.30 in 10.0 mi Calm Calm - N/A   Clear
8:35 PM 51.8 °F - 46.4 °F 82% 30.31 in 10.0 mi Calm Calm - N/A   Clear
8:55 PM 51.8 °F - 46.4 °F 82% 30.31 in 10.0 mi Calm Calm - N/A   Clear
9:15 PM 50.0 °F - 48.2 °F 94% 30.31 in 10.0 mi Calm Calm - N/A   Clear
9:35 PM 48.2 °F - 46.4 °F 93% 30.31 in 10.0 mi Calm Calm - N/A   Clear
9:55 PM 48.2 °F - 46.4 °F 93% 30.33 in 10.0 mi SE 3.5 mph - N/A   Clear
10:15 PM 46.4 °F 45.2 °F 46.4 °F 100% 30.32 in 10.0 mi SSE 3.5 mph - N/A   Clear
10:35 PM 48.2 °F - 46.4 °F 93% 30.32 in 10.0 mi Calm Calm - N/A   Clear
10:55 PM 48.2 °F - 46.4 °F 93% 30.32 in 10.0 mi SSE 3.5 mph - N/A   Clear
11:15 PM 46.4 °F 45.2 °F 46.4 °F 100% 30.32 in 10.0 mi SE 3.5 mph - N/A   Clear
11:35 PM 44.6 °F 41.4 °F 42.8 °F 93% 30.31 in 10.0 mi SSE 5.8 mph - N/A   Clear
11:55 PM 44.6 °F 43.1 °F 44.6 °F 100% 30.30 in 10.0 mi SSE 3.5 mph - N/A   Clear